"Pseudo-MPEC" for 1977-093E = NORAD 32705 = Blok SO-L

Created 2018 Nov 15 21:21:09 UT using Find_Orb

Click here for an explanation of pseudo-MPECs

 
 Astrometry: 
1977-093E     C2010 01 16.32056 09 35 12.19 +30 09 57.0         x14.8 V D0336703
1977-093E     C2010 01 16.32222 09 35 32.89 +30 16 47.1         x14.8 V D0336703
1977-093E     C2010 01 16.32389 09 35 53.19 +30 23 29.6         x       D0336703
1977-093E     C2010 01 16.32551 09 36 13.21 +30 30 04.1         x       D0336703
1977-093E     C2010 03 20.24978 12 37 42.96 +51 11 26.6         x16.7 V D0338703
1977-093E     C2010 03 20.25505 12 38 11.14 +51 14 13.3         x16.7 V D0338703
1977-093E     C2010 03 20.26030 12 38 38.94 +51 16 54.5         x16.7 V D0338703
1977-093E     C2011 02 12.45145 11 47 56.72 +53 33 04.4         x16.7 VrD0362703
1977-093E     C2011 02 12.45607 11 48 12.02 +53 32 49.4         x16.7 VrD0362703
1977-093E     C2011 02 12.46071 11 48 27.57 +53 32 29.6         x16.8 VrD0362703
1977-093E     C2011 03 27.20421 12 12 21.99 +53 45 49.5         x17.0 VrD0365703
1977-093E     C2011 03 27.20968 12 12 40.05 +53 47 13.8         x17.0 VrD0365703
1977-093E     C2011 03 27.21516 12 12 57.69 +53 48 33.6         x16.9 VrD0365703
1977-093E     C2011 03 27.22079 12 13 15.38 +53 49 49.0         x16.9 VrD0365703
1977-093E     C2014 12 01.50669 10 50 32.99 +48 27 39.3         x17.0 V D0513703
1977-093E     C2014 12 01.51076 10 50 20.53 +48 20 28.7         x16.6 V D0513703
1977-093E     C2014 12 01.51481 10 50 07.71 +48 13 04.9         x18.0 V D0513703
1977-093E     C2014 12 01.51889 10 49 54.25 +48 05 20.3         x16.8 V D0513703
1977-093E     C2014 12 01.53564 10 48 58.33 +47 32 48.6         x16.5 V D0513703
1977-093E     C2014 12 01.53585 10 48 57.65 +47 32 23.6         x16.4 V D0513703
1977-093E     C2014 12 01.53606 10 48 56.92 +47 31 58.5         x16.6 V D0513703
1977-093E     C2014 12 01.53628 10 48 56.21 +47 31 33.0         x16.6 V D0513703
1977-093E     C2015 02 12.30324 10 18 31.28 +69 50 25.9          17.7 g D0515I41
1977-093E     C2015 02 12.33760 10 15 55.16 +69 09 41.3          17.7 g D0515I41
1977-093E    tC2016 08 25.17352 22 02 42.79 +34 00 08.4          16.1 RqD0550Y00
1977-093E    tC2016 08 25.17512 22 02 36.28 +34 06 41.2          16.2 RqD0550Y00
1977-093E    tC2016 08 25.17668 22 02 29.70 +34 13 09.1          16.4 RqD0550Y00
     ZTF01nb  C2018 11 15.36784007 13 29.75 +69 44 26.2          15.17RUNEOCPI41
     ZTF01nb  C2018 11 15.36818707 13 37.79 +69 42 43.9          15.17RUNEOCPI41
     ZTF01nb  C2018 11 15.36886007 13 53.68 +69 39 22.7          15.17RUNEOCPI41
     ZTF01nb  C2018 11 15.36920807 14 01.78 +69 37 37.3          15.17RUNEOCPI41

Station data:
(703) Catalina Sky Survey  (N32.417006 W110.732640)  US/Arizona.  Observers
   A. R. Gibbs, R. Hill. Measurers J. D. Ahern, E. C. Beshore, A. Boattini,
   G. J. Garradd, A. R. Gibbs, A. D. Grauer, R. E. Hill, R. A. Kowalski, S.
   M. Larson, R. H. McNaught, E. J. Christensen, J. A. Johnson, R. J.
   Sanders, F. C. Shelly. 0.68-m Schmidt + CCD.
(I41) Palomar Mountain--ZTF  (N33.357340 W116.859780)  US/California.
   Observer A. U. Tomatic. Measurer Q.-Z. Ye.
(Y00) SONEAR Observatory, Oliveira  (S20.715082 W44.784960)  Brazil.
   Observers C. Jacques, E. Pimentel, J. Barros. Measurer C. Jacques. 0.28-m
   f/2.2 astrograph + CCD.

Orbital elements:  1977-093E = NORAD 32705 = Blok SO-L
   Perigee 2018 Nov 15.727554 +/- 0.000966 TT = 17:27:40 (JD 2458438.227554)
Epoch 2018 Nov 15.0 TT; AMR 0.0037657 +/- 0.0308 m2/kg       Gray
M 292.42301195 +/- 0.08             (J2000 equator)
n  92.88244036 +/- 0.000279         Peri.  231.14730 +/- 0.016
a104227.205 +/- 0.208               Node   311.92848 +/- 0.009
e   0.7161442 +/- 0.000496          Incl.   78.51919 +/- 0.0014
P5581.14m/3.876d           H 30.2   G  0.15   U  7.3
q 29585.4869 +/- 51.6    Q 178868.924 +/- 52.1
9 of 31 observations 2015 Feb. 12-2018 Nov. 15; mean residual 1".401
Residuals in arcseconds: 
100116 703(2647- 2413-)   110327 703( 657- 42.9-)   150212 I41 .122+ 2.08+
100116 703(2637- 2397-)   110327 703( 657- 42.5-)   150212 I41 .167- 3.13-
100116 703(2633- 2388-)   110327 703( 658- 43.3-)   160825 Y00 .747- 2.48+
100116 703(2624- 2373-)   141201 703(58.1-  179-)   160825 Y00 1.14+ 2.03-
100320 703(1152-  233-)   141201 703(54.5-  166-)   160825 Y00 .397- .557+
100320 703(1152-  232-)   141201 703(53.3-  163-)   181115 I41 .718+ 1.17-
100320 703(1151-  230-)   141201 703(55.9-  172-)   181115 I41 .135+ .315-
110212 703( 727-  122-)   141201 703(58.8-  182-)   181115 I41 .810+ .839-
110212 703( 727-  121-)   141201 703(58.5-  182-)   181115 I41 .688+ 2.15-
110212 703( 727-  122-)   141201 703(58.7-  182-)
110327 703( 657- 42.9-)   141201 703(58.4-  181-)

Ephemerides (geocentric):
Date (UTC) HH   RA              Dec         delta  elong  mag " sig PA
---- -- -- --  -------------   -----------  ------ -----  --- ---- ---
2018 11 15 00  01 08 48.672   +77 23 38.82  125783 118.8 17.0  684  66
2018 11 15 01  01 42 42.605   +78 03 11.60  121684 119.2 16.9  723  74
2018 11 15 02  02 22 21.164   +78 26 55.69  117382 119.5 16.8  769  84
2018 11 15 03  03 06 42.211   +78 28 44.45  112867 119.9 16.7  822  94
2018 11 15 04  03 53 16.339   +78 02 41.01  108128 120.2 16.6  885 105
2018 11 15 05  04 38 44.373   +77 04 17.55  103156 120.5 16.5  959 116
2018 11 15 06  05 20 16.282   +75 31 04.29   97936 120.8 16.4 1048 126
2018 11 15 07  05 56 25.365   +73 21 37.32   92458 120.9 16.3 1158 135
2018 11 15 08  06 27 04.479   +70 34 04.01   86707 121.0 16.1 1294 142
2018 11 15 09  06 52 52.258   +67 04 32.21   80672 120.9 16.0 1467 148
2018 11 15 10  07 14 43.218   +62 45 48.35   74343 120.6 15.8 1694 153
2018 11 15 11  07 33 32.024   +57 25 36.51   67720 119.9 15.6 1999 157
2018 11 15 12  07 50 08.637   +50 43 55.08   60818 118.6 15.4 2423 160
2018 11 15 13  08 05 19.819   +42 08 07.32   53693 116.3 15.2 3035 163
2018 11 15 14  08 19 55.666   +30 44 40.76   46486 112.3 15.0 3949 165
2018 11 15 15  08 35 05.737   +15 07 27.08   39534 105.6 14.9 5324 167
2018 11 15 16  08 53 08.433   -06 41 17.78   33583  94.7 14.9 7210 168
2018 11 15 17  09 21 07.927   -35 36 29.26   30008  79.6 15.4 8875 165
2018 11 15 18  10 40 00.569   -66 39 52.00   30247  65.4 16.2 8630 150
2018 11 15 19  17 13 45.644   -75 49 08.92   34184  59.1 16?? 6665  54
2018 11 15 20  19 31 05.552   -58 14 18.96   40311  59.7 17?? 4719  23
2018 11 15 21  20 03 01.138   -43 38 31.12   47322  62.9 17.3 3376  17
2018 11 15 22  20 17 47.463   -32 38 28.32   54533  66.6 17.4 2513  16
2018 11 15 23  20 26 48.043   -24 08 25.11   61638  70.0 17.4 1951  15
2018 11 16 00  20 33 08.111   -17 21 11.93   68510  73.0 17.5 1571  16
2018 11 16 01  20 37 59.121   -11 46 26.53   75100  75.5 17.6 1304  16
2018 11 16 02  20 41 54.843   -07 04 25.92   81396  77.8 17.6 1110  17
2018 11 16 03  20 45 13.498   -03 01 59.49   87398  79.8 17.7  965  17
2018 11 16 04  20 48 05.890   +00 29 58.24   93118  81.6 17.7  853  18
2018 11 16 05  20 50 38.886   +03 37 55.10   98567  83.2 17.8  766  19
2018 11 16 06  20 52 57.097   +06 26 34.37  103758  84.6 17.8  696  20
2018 11 16 07  20 55 03.754   +08 59 27.99  108705  85.9 17.9  639  21
2018 11 16 08  20 57 01.204   +11 19 17.87  113418  87.1 17.9  593  21
2018 11 16 09  20 58 51.205   +13 28 10.06  117910  88.2 17.9  554  22
2018 11 16 10  21 00 35.105   +15 27 44.29  122190  89.2 18.0  522  23
2018 11 16 11  21 02 13.966   +17 19 20.66  126268  90.2 18.0  494  23
2018 11 16 12  21 03 48.634   +19 04 04.33  130152  91.1 18.0  471  24
2018 11 16 13  21 05 19.802   +20 42 48.97  133849  92.0 18.1  451  24
2018 11 16 14  21 06 48.044   +22 16 19.24  137368  92.8 18.1  434  25
2018 11 16 15  21 08 13.842   +23 45 12.67  140714  93.5 18.1  419  25
2018 11 16 16  21 09 37.609   +25 10 01.11  143894  94.2 18.1  406  25
2018 11 16 17  21 10 59.701   +26 31 11.77  146911  94.9 18.1  395  26
2018 11 16 18  21 12 20.431   +27 49 08.12  149772  95.6 18.2  385  26
2018 11 16 19  21 13 40.079   +29 04 10.51  152480  96.2 18.2  376  26
2018 11 16 20  21 14 58.896   +30 16 36.74  155040  96.8 18.2  369  27
2018 11 16 21  21 16 17.110   +31 26 42.45  157455  97.4 18.2  362  27
2018 11 16 22  21 17 34.933   +32 34 41.48  159729  98.0 18.2  357  27
2018 11 16 23  21 18 52.565   +33 40 46.16  161864  98.6 18.2  352  27
2018 11 17 00  21 20 10.193   +34 45 07.50  163864  99.1 18.2  347  27
2018 11 17 01  21 21 27.999   +35 47 55.43  165731  99.6 18.2  344  27
2018 11 17 02  21 22 46.159   +36 49 18.92  167467 100.1 18.2  341  28
2018 11 17 03  21 24 04.846   +37 49 26.12  169074 100.6 18.2  338  28
2018 11 17 04  21 25 24.232   +38 48 24.49  170554 101.1 18.2  336  28
2018 11 17 05  21 26 44.491   +39 46 20.87  171910 101.6 18.2  335  28
2018 11 17 06  21 28 05.800   +40 43 21.59  173142 102.1 18.2  333  28
2018 11 17 07  21 29 28.340   +41 39 32.52  174251 102.5 18.2  333  28
2018 11 17 08  21 30 52.300   +42 34 59.13  175240 103.0 18.2  332  28
2018 11 17 09  21 32 17.877   +43 29 46.54  176109 103.4 18.2  332  28
2018 11 17 10  21 33 45.278   +44 23 59.60  176859 103.9 18.2  333  28
2018 11 17 11  21 35 14.725   +45 17 42.89  177491 104.3 18.2  333  28
2018 11 17 12  21 36 46.453   +46 11 00.77  178006 104.7 18.2  334  28
2018 11 17 13  21 38 20.717   +47 03 57.42  178403 105.2 18.2  335  28
2018 11 17 14  21 39 57.795   +47 56 36.86  178684 105.6 18.2  337  28
2018 11 17 15  21 41 37.986   +48 49 02.99  178849 106.0 18.2  339  28
2018 11 17 16  21 43 21.622   +49 41 19.59  178898 106.4 18.2  341  28
2018 11 17 17  21 45 09.066   +50 33 30.36  178831 106.8 18.1  344  28
2018 11 17 18  21 47 00.724   +51 25 38.96  178647 107.2 18.1  346  28
2018 11 17 19  21 48 57.045   +52 17 48.97  178348 107.6 18.1  350  28
2018 11 17 20  21 50 58.534   +53 10 03.95  177932 108.1 18.1  353  29
2018 11 17 21  21 53 05.760   +54 02 27.47  177399 108.5 18.1  357  29
2018 11 17 22  21 55 19.366   +54 55 03.08  176748 108.9 18.0  361  29
2018 11 17 23  21 57 40.083   +55 47 54.35  175979 109.3 18.0  366  29
2018 11 18 00  22 00 08.748   +56 41 04.85  175091 109.7 18.0  371  29
2018 11 18 01  22 02 46.325   +57 34 38.19  174082 110.1 18.0  377  29
2018 11 18 02  22 05 33.928   +58 28 38.03  172953 110.5 17.9  383  30
2018 11 18 03  22 08 32.852   +59 23 08.00  171701 110.9 17.9  389  30
2018 11 18 04  22 11 44.616   +60 18 11.78  170325 111.4 17.9  396  30
2018 11 18 05  22 15 11.010   +61 13 53.02  168824 111.8 17.9  404  31
2018 11 18 06  22 18 54.158   +62 10 15.29  167196 112.2 17.8  412  31
2018 11 18 07  22 22 56.601   +63 07 22.07  165439 112.6 17.8  421  32